Location: Newark
(34.0131°N, 4.3314°W)
Time: 03:12:55
(UTC+00:00)

A-11 Canister half - Pass Details

Date: 23 October 2019
Orbit: 1514 x 1686 km, 47.2° (Epoch: 16 November)

Event Time Altitude Azimuth Distance (km) Brightness Sun altitude
Rises 08:53:54 0° 302° (WNW) 4,757 11.0 26.4°
Reaches altitude 10° 08:57:09 10° 297° (WNW) 3,748 10.6 26.9°
Maximum altitude 09:05:59 47° 227° (SW) 1,940 9.8 28.4°
Drops below altitude 10° 09:14:39 10° 157° (SSE) 3,663 12.2 29.7°
Sets 09:17:48 0° 152° (SSE) 4,641 12.5 30.2°
